This demonstration page uses our WeatherBlox Daily Observations layout. Learn more.

Left ArrowRight Arrow

39.29038, -76.61219

Hourly Observations for May 29, 2020

Temp ( °F °C ) Dew Point ( °F °C ) Humidity (%) Winds ( mph kmh ) Pressure ( in mb ) Visibility ( mi km ) Precip ( " mm )
12:54 am 00:54 undefined 74 23.3 71 21.7 91 91 undefined N/A 30.04 1017 N/A N/A
1:54 am 01:54 undefined 73 22.8 71 21.7 94 94 undefined N/A 30.04 1017 N/A N/A
2:54 am 02:54 undefined 73 22.8 71 21.7 94 94 undefined N/A 30.04 1017 N/A N/A
3:54 am 03:54 undefined 74 23.3 70 21.1 88 88 undefined N/A 30.02 1017 N/A N/A
4:54 am 04:54 undefined 74 23.3 70 21.1 88 88 undefined N/A 30.03 1017 N/A N/A
5:54 am 05:54 undefined 73 22.8 70 21.1 90 90 undefined N/A 30.02 1017 N/A N/A
6:54 am 06:54 undefined 74 23.3 70 21.1 88 88 undefined N/A 30.03 1017 N/A N/A
7:54 am 07:54 undefined 75 23.9 71 21.7 88 88 undefined N/A 30.04 1017 N/A N/A
8:54 am 08:54 undefined 77 25 71 21.7 82 82 undefined N/A 30.03 1017 N/A N/A
9:54 am 09:54 undefined 79 26.1 72 22.2 79 79 undefined N/A 30.03 1017 N/A N/A
10:54 am 10:54 undefined 83 28.3 73 22.8 72 72 undefined N/A 30.02 1017 N/A N/A
11:54 am 11:54 undefined 83 28.3 71 21.7 67 67 undefined N/A 29.99 1016 N/A N/A
12:54 pm 12:54 undefined 86 30 72 22.2 63 63 undefined N/A 29.98 1015 N/A N/A
1:54 pm 13:54 undefined 85 29.4 72 22.2 65 65 undefined N/A 29.93 1014 N/A N/A
2:54 pm 14:54 undefined 84 28.9 74 23.3 72 72 undefined N/A 29.91 1013 N/A N/A
3:54 pm 15:54 undefined 83 28.3 72 22.2 70 70 undefined N/A 29.89 1012 N/A N/A
4:54 pm 16:54 undefined 83 28.3 73 22.8 72 72 undefined N/A 29.89 1012 N/A N/A
5:54 pm 17:54 undefined 82 27.8 73 22.8 74 74 undefined N/A 29.87 1012 N/A N/A
6:54 pm 18:54 undefined 82 27.8 72 22.2 72 72 undefined N/A 29.88 1012 N/A N/A
7:54 pm 19:54 undefined 83 28.3 69 20.6 63 63 undefined N/A 29.88 1012 N/A N/A
8:54 pm 20:54 undefined 80 26.7 70 21.1 71 71 undefined N/A 29.87 1012 N/A N/A
9:54 pm 21:54 undefined 79 26.1 70 21.1 74 74 undefined N/A 29.87 1012 N/A N/A
10:54 pm 22:54 undefined 78 25.6 70 21.1 76 76 undefined N/A 29.89 1012 N/A N/A
11:54 pm 23:54 undefined 78 25.6 70 21.1 76 76 undefined N/A 29.90 1012 N/A N/A

Powered by AerisWeather